Station Historical Data
Daily Summary for June 14, 2012 Units:  English    Metric   Both
« Previous Day
Next Day »
Daily Weekly Monthly Yearly Custom
  High: Low: Average:
Temperature: 91.3 °F 64.1 °F 76.6 °F
Dew Point: 69.4 °F 56.4 °F 61.9 °F
Humidity: 80% 36% 62%
Wind Speed: 8.0mph 0.0mph 1.7mph
Wind Gust: 10.0mph - -
Wind- - ESE
Pressure: 29.99 in 29.92 in -
Precipitation: 0.00 in    
Historical Graphs
 
 
Tabular Data for June 14, 2012
Time Temperature Dew Point Pressure Wind Wind Speed Wind Gust Humidity Rainfall Rate (Hourly) Conditions
00:00 68.8 °F 58.2 °F 29.94 in NNW 1.0 mph 2.0 mph 69% 0.00 in
00:05 68.7 °F 58.1 °F 29.94 in North 1.0 mph 2.0 mph 69% 0.00 in
00:10 68.4 °F 58.2 °F 29.94 in North 2.0 mph 2.0 mph 70% 0.00 in
00:16 68.3 °F 58.2 °F 29.94 in North 1.0 mph 2.0 mph 70% 0.00 in
00:20 68.1 °F 58.0 °F 29.95 in NNW 1.0 mph 3.0 mph 70% 0.00 in
00:26 68.1 °F 58.3 °F 29.95 in North 1.0 mph 2.0 mph 71% 0.00 in
00:31 67.9 °F 58.2 °F 29.95 in North 1.0 mph 2.0 mph 71% 0.00 in
00:36 67.7 °F 58.0 °F 29.95 in North 1.0 mph 1.0 mph 71% 0.00 in
00:41 67.6 °F 57.9 °F 29.95 in North 1.0 mph 2.0 mph 71% 0.00 in
00:46 67.8 °F 57.7 °F 29.95 in North 2.0 mph 2.0 mph 70% 0.00 in
00:51 67.9 °F 57.8 °F 29.95 in NNE 2.0 mph 3.0 mph 70% 0.00 in
00:56 67.9 °F 57.8 °F 29.95 in North 1.0 mph 1.0 mph 70% 0.00 in
01:01 67.7 °F 57.6 °F 29.95 in NNW 1.0 mph 2.0 mph 70% 0.00 in
01:06 67.7 °F 57.6 °F 29.95 in North 1.0 mph 2.0 mph 70% 0.00 in
01:11 67.6 °F 57.5 °F 29.95 in Calm   2.0 mph 70% 0.00 in
01:16 67.5 °F 57.8 °F 29.95 in Calm   2.0 mph 71% 0.00 in
01:21 67.4 °F 57.3 °F 29.95 in NNE 1.0 mph 2.0 mph 70% 0.00 in
01:26 67.3 °F 57.2 °F 29.94 in NNE 1.0 mph 2.0 mph 70% 0.00 in
01:31 67.4 °F 57.3 °F 29.94 in NNE 1.0 mph 3.0 mph 70% 0.00 in
01:36 67.5 °F 57.4 °F 29.94 in NNE 2.0 mph 3.0 mph 70% 0.00 in
01:41 67.6 °F 57.1 °F 29.94 in NNE 2.0 mph 4.0 mph 69% 0.00 in
01:46 67.7 °F 57.2 °F 29.94 in NNE 2.0 mph 3.0 mph 69% 0.00 in
01:51 67.7 °F 57.2 °F 29.94 in NNE 2.0 mph 4.0 mph 69% 0.00 in
01:56 67.7 °F 57.2 °F 29.94 in North 3.0 mph 4.0 mph 69% 0.00 in
02:01 67.7 °F 57.2 °F 29.94 in NNE 2.0 mph 3.0 mph 69% 0.00 in
02:06 67.7 °F 57.2 °F 29.94 in NNE 3.0 mph 4.0 mph 69% 0.00 in
02:11 67.6 °F 57.1 °F 29.94 in NNE 2.0 mph 2.0 mph 69% 0.00 in
02:16 67.5 °F 57.0 °F 29.93 in NNE 2.0 mph 2.0 mph 69% 0.00 in
02:21 67.3 °F 56.8 °F 29.93 in NW 2.0 mph 3.0 mph 69% 0.00 in
02:26 67.2 °F 56.7 °F 29.93 in NNE 2.0 mph 2.0 mph 69% 0.00 in
02:31 66.9 °F 56.8 °F 29.93 in NNE 2.0 mph 3.0 mph 70% 0.00 in
02:36 66.9 °F 56.8 °F 29.93 in NNE 2.0 mph 4.0 mph 70% 0.00 in
02:41 66.9 °F 56.8 °F 29.93 in NNE 2.0 mph 4.0 mph 70% 0.00 in
02:46 66.8 °F 56.7 °F 29.93 in North 2.0 mph 3.0 mph 70% 0.00 in
02:51 66.7 °F 56.6 °F 29.92 in NNE 2.0 mph 3.0 mph 70% 0.00 in
02:56 66.8 °F 56.7 °F 29.93 in North 2.0 mph 4.0 mph 70% 0.00 in
03:01 66.7 °F 56.6 °F 29.93 in NNE 2.0 mph 3.0 mph 70% 0.00 in
03:06 66.6 °F 56.9 °F 29.92 in NNW 1.0 mph 3.0 mph 71% 0.00 in
03:11 66.4 °F 56.7 °F 29.92 in NNE 1.0 mph 4.0 mph 71% 0.00 in
03:16 66.2 °F 56.5 °F 29.92 in Calm   3.0 mph 71% 0.00 in
03:21 66.0 °F 56.7 °F 29.92 in North 2.0 mph 3.0 mph 72% 0.00 in
03:26 65.8 °F 56.5 °F 29.92 in North 1.0 mph 2.0 mph 72% 0.00 in
03:31 65.6 °F 56.7 °F 29.92 in NNE 1.0 mph 2.0 mph 73% 0.00 in
03:36 65.6 °F 56.7 °F 29.92 in NNE 1.0 mph 2.0 mph 73% 0.00 in
03:41 65.5 °F 56.6 °F 29.92 in NNE 1.0 mph 1.0 mph 73% 0.00 in
03:47 65.4 °F 56.5 °F 29.92 in NNE 1.0 mph 2.0 mph 73% 0.00 in
03:52 65.4 °F 56.5 °F 29.93 in NNE 1.0 mph 2.0 mph 73% 0.00 in
03:57 65.4 °F 56.5 °F 29.93 in NE 1.0 mph 2.0 mph 73% 0.00 in
04:02 65.4 °F 56.5 °F 29.92 in NNE 2.0 mph 3.0 mph 73% 0.00 in
04:07 65.5 °F 56.6 °F 29.92 in North 2.0 mph 2.0 mph 73% 0.00 in
04:12 65.3 °F 56.4 °F 29.92 in NNE 1.0 mph 2.0 mph 73% 0.00 in
04:17 65.2 °F 56.7 °F 29.92 in NE 1.0 mph 3.0 mph 74% 0.00 in
04:22 65.2 °F 56.7 °F 29.92 in NNE 1.0 mph 3.0 mph 74% 0.00 in
04:27 65.1 °F 56.6 °F 29.92 in NNE 2.0 mph 3.0 mph 74% 0.00 in
04:32 65.1 °F 56.6 °F 29.92 in NNE 1.0 mph 4.0 mph 74% 0.00 in
04:37 65.0 °F 56.5 °F 29.93 in North 1.0 mph 2.0 mph 74% 0.00 in
04:42 65.0 °F 56.5 °F 29.93 in North 1.0 mph 2.0 mph 74% 0.00 in
04:47 65.1 °F 56.6 °F 29.93 in NNE 2.0 mph 3.0 mph 74% 0.00 in
04:52 65.0 °F 56.5 °F 29.93 in NNE 2.0 mph 3.0 mph 74% 0.00 in
04:57 65.0 °F 56.5 °F 29.93 in NNE 1.0 mph 3.0 mph 74% 0.00 in
05:02 65.1 °F 56.6 °F 29.93 in Calm   2.0 mph 74% 0.00 in
05:07 65.0 °F 56.5 °F 29.93 in NNE 1.0 mph 2.0 mph 74% 0.00 in
05:12 65.0 °F 56.5 °F 29.93 in North 1.0 mph 2.0 mph 74% 0.00 in
05:17 64.9 °F 56.8 °F 29.93 in NNE 1.0 mph 2.0 mph 75% 0.00 in
05:22 64.7 °F 56.6 °F 29.93 in NNE 1.0 mph 2.0 mph 75% 0.00 in
05:27 64.7 °F 56.6 °F 29.94 in NNE 2.0 mph 3.0 mph 75% 0.00 in
05:32 64.7 °F 56.6 °F 29.94 in NNE 2.0 mph 3.0 mph 75% 0.00 in
05:37 64.7 °F 56.6 °F 29.93 in NE 2.0 mph 3.0 mph 75% 0.00 in
05:42 64.6 °F 56.5 °F 29.94 in North 1.0 mph 3.0 mph 75% 0.00 in
05:47 64.5 °F 56.8 °F 29.94 in NE 2.0 mph 3.0 mph 76% 0.00 in
05:52 64.3 °F 56.6 °F 29.94 in North 4.0 mph 4.0 mph 76% 0.00 in
05:58 64.3 °F 56.6 °F 29.94 in North 2.0 mph 4.0 mph 76% 0.00 in
06:03 64.4 °F 56.7 °F 29.94 in NE 3.0 mph 4.0 mph 76% 0.00 in
06:08 64.4 °F 56.7 °F 29.94 in NNE 2.0 mph 4.0 mph 76% 0.00 in
06:13 64.5 °F 56.8 °F 29.94 in NE 4.0 mph 4.0 mph 76% 0.00 in
06:18 64.6 °F 56.9 °F 29.94 in NE 2.0 mph 3.0 mph 76% 0.00 in
06:23 64.5 °F 56.8 °F 29.94 in North 4.0 mph 4.0 mph 76% 0.00 in
06:28 64.5 °F 56.8 °F 29.94 in NNE 3.0 mph 3.0 mph 76% 0.00 in
06:33 64.3 °F 56.6 °F 29.94 in NE 1.0 mph 4.0 mph 76% 0.00 in
06:38 64.2 °F 56.8 °F 29.95 in Calm   1.0 mph 77% 0.00 in
06:43 64.1 °F 56.8 °F 29.95 in NNE 1.0 mph 3.0 mph 77% 0.00 in
06:48 64.2 °F 56.8 °F 29.95 in NE 1.0 mph 1.0 mph 77% 0.00 in
06:53 64.1 °F 56.8 °F 29.95 in NE 1.0 mph 2.0 mph 77% 0.00 in
06:58 64.1 °F 56.8 °F 29.96 in NE 2.0 mph 2.0 mph 77% 0.00 in
07:03 64.1 °F 56.8 °F 29.96 in North 2.0 mph 3.0 mph 77% 0.00 in
07:08 64.1 °F 56.8 °F 29.96 in North 2.0 mph 3.0 mph 77% 0.00 in
07:13 64.2 °F 56.8 °F 29.96 in NNE 2.0 mph 4.0 mph 77% 0.00 in
07:18 64.3 °F 57.0 °F 29.96 in NNE 1.0 mph 2.0 mph 77% 0.00 in
07:23 64.5 °F 57.1 °F 29.97 in NNE 1.0 mph 3.0 mph 77% 0.00 in
07:28 64.6 °F 57.2 °F 29.97 in NNE 3.0 mph 3.0 mph 77% 0.00 in
07:33 65.2 °F 57.8 °F 29.97 in North 2.0 mph 4.0 mph 77% 0.00 in
07:38 65.9 °F 57.8 °F 29.97 in North 1.0 mph 3.0 mph 75% 0.00 in
07:43 66.6 °F 58.1 °F 29.98 in NE 3.0 mph 3.0 mph 74% 0.00 in
07:48 67.1 °F 58.5 °F 29.98 in NE 2.0 mph 2.0 mph 74% 0.00 in
07:53 67.5 °F 58.5 °F 29.97 in NNE 2.0 mph 2.0 mph 73% 0.00 in
07:58 67.9 °F 58.9 °F 29.98 in NNE 2.0 mph 5.0 mph 73% 0.00 in
08:03 68.3 °F 58.5 °F 29.98 in NNE 2.0 mph 4.0 mph 71% 0.00 in
08:08 68.5 °F 59.1 °F 29.98 in NE 3.0 mph 4.0 mph 72% 0.00 in
08:13 68.7 °F 59.3 °F 29.98 in NE 2.0 mph 4.0 mph 72% 0.00 in
08:18 69.0 °F 59.2 °F 29.98 in NE 4.0 mph 5.0 mph 71% 0.00 in
08:23 69.2 °F 59.8 °F 29.98 in NNE 1.0 mph 5.0 mph 72% 0.00 in
08:28 69.8 °F 60.4 °F 29.98 in NE 3.0 mph 3.0 mph 72% 0.00 in
08:33 70.1 °F 60.3 °F 29.98 in NE 4.0 mph 5.0 mph 71% 0.00 in
08:38 70.5 °F 61.0 °F 29.98 in NNE 4.0 mph 4.0 mph 72% 0.00 in
08:43 70.6 °F 60.3 °F 29.98 in NE 3.0 mph 6.0 mph 70% 0.00 in
08:48 70.9 °F 61.0 °F 29.98 in NE 3.0 mph 5.0 mph 71% 0.00 in
08:53 71.3 °F 61.0 °F 29.98 in NE 3.0 mph 6.0 mph 70% 0.00 in
08:58 71.7 °F 61.8 °F 29.98 in NNE 2.0 mph 4.0 mph 71% 0.00 in
09:03 72.3 °F 62.8 °F 29.99 in ENE 1.0 mph 5.0 mph 72% 0.00 in
09:08 73.1 °F 62.7 °F 29.99 in ENE 1.0 mph 3.0 mph 70% 0.00 in
09:13 73.5 °F 63.1 °F 29.99 in ENE 1.0 mph 4.0 mph 70% 0.00 in
09:18 74.5 °F 62.8 °F 29.99 in East 1.0 mph 2.0 mph 67% 0.00 in
09:23 74.7 °F 62.2 °F 29.99 in NE 3.0 mph 4.0 mph 65% 0.00 in
09:28 74.6 °F 62.5 °F 29.99 in NE 4.0 mph 5.0 mph 66% 0.00 in
09:33 74.9 °F 62.3 °F 29.99 in East 2.0 mph 4.0 mph 65% 0.00 in
09:39 75.3 °F 62.3 °F 29.99 in East 1.0 mph 5.0 mph 64% 0.00 in
09:44 75.4 °F 62.4 °F 29.99 in East 3.0 mph 7.0 mph 64% 0.00 in
09:49 75.5 °F 62.0 °F 29.99 in ENE 2.0 mph 6.0 mph 63% 0.00 in
09:54 75.9 °F 63.3 °F 29.99 in East 3.0 mph 4.0 mph 65% 0.00 in
09:59 76.3 °F 64.1 °F 29.99 in East 2.0 mph 4.0 mph 66% 0.00 in
10:04 76.8 °F 63.3 °F 29.99 in ENE 4.0 mph 5.0 mph 63% 0.00 in
10:09 76.9 °F 63.8 °F 29.99 in Calm   5.0 mph 64% 0.00 in
10:14 77.5 °F 63.9 °F 29.99 in East 5.0 mph 5.0 mph 63% 0.00 in
10:19 77.5 °F 63.5 °F 29.99 in ESE 2.0 mph 5.0 mph 62% 0.00 in
10:24 77.7 °F 63.7 °F 29.99 in East 1.0 mph 7.0 mph 62% 0.00 in
10:29 77.8 °F 64.2 °F 29.99 in NE 4.0 mph 4.0 mph 63% 0.00 in
10:34 78.2 °F 65.0 °F 29.99 in NE 4.0 mph 4.0 mph 64% 0.00 in
10:39 78.7 °F 65.1 °F 29.99 in NE 1.0 mph 5.0 mph 63% 0.00 in
10:44 79.0 °F 66.2 °F 29.99 in East 5.0 mph 5.0 mph 65% 0.00 in
10:49 78.9 °F 64.8 °F 29.99 in SE 4.0 mph 6.0 mph 62% 0.00 in
10:54 79.4 °F 66.2 °F 29.99 in Calm   1.0 mph 64% 0.00 in
10:59 79.7 °F 65.1 °F 29.99 in ESE 2.0 mph 4.0 mph 61% 0.00 in
11:04 80.1 °F 66.4 °F 29.99 in ESE 4.0 mph 5.0 mph 63% 0.00 in
11:09 80.7 °F 67.4 °F 29.99 in ENE 4.0 mph 4.0 mph 64% 0.00 in
11:14 80.8 °F 66.1 °F 29.99 in Calm   4.0 mph 61% 0.00 in
11:19 81.3 °F 67.1 °F 29.99 in East 1.0 mph 2.0 mph 62% 0.00 in
11:24 81.6 °F 66.9 °F 29.99 in East 4.0 mph 5.0 mph 61% 0.00 in
11:29 81.6 °F 66.4 °F 29.99 in ESE 1.0 mph 3.0 mph 60% 0.00 in
11:34 82.3 °F 66.1 °F 29.99 in South 3.0 mph 4.0 mph 58% 0.00 in
11:39 83.1 °F 67.8 °F 29.99 in SW 1.0 mph 2.0 mph 60% 0.00 in
11:44 83.5 °F 66.2 °F 29.99 in Calm   4.0 mph 56% 0.00 in
11:49 83.7 °F 66.3 °F 29.99 in WSW 1.0 mph 3.0 mph 56% 0.00 in
11:54 84.4 °F 68.0 °F 29.99 in Calm   1.0 mph 58% 0.00 in
11:59 85.0 °F 68.6 °F 29.99 in West 1.0 mph 3.0 mph 58% 0.00 in
12:04 84.3 °F 67.4 °F 29.99 in Calm   4.0 mph 57% 0.00 in
12:09 84.5 °F 67.1 °F 29.99 in Calm   4.0 mph 56% 0.00 in
12:14 84.3 °F 65.9 °F 29.99 in East 4.0 mph 4.0 mph 54% 0.00 in
12:19 84.5 °F 65.5 °F 29.99 in NNE 4.0 mph 4.0 mph 53% 0.00 in
12:24 84.5 °F 67.1 °F 29.99 in NNW 3.0 mph 3.0 mph 56% 0.00 in
12:29 84.7 °F 62.9 °F 29.99 in ENE 2.0 mph 7.0 mph 48% 0.00 in
12:34 84.5 °F 62.7 °F 29.99 in Calm   4.0 mph 48% 0.00 in
12:39 84.9 °F 63.6 °F 29.99 in SE 3.0 mph 6.0 mph 49% 0.00 in
12:44 84.7 °F 63.5 °F 29.99 in ESE 1.0 mph 4.0 mph 49% 0.00 in
12:49 84.9 °F 64.2 °F 29.99 in SW 6.0 mph 6.0 mph 50% 0.00 in
12:54 84.9 °F 63.0 °F 29.99 in SSE 1.0 mph 4.0 mph 48% 0.00 in
12:59 85.7 °F 62.6 °F 29.99 in NE 4.0 mph 6.0 mph 46% 0.00 in
13:04 85.2 °F 62.7 °F 29.99 in Calm   4.0 mph 47% 0.00 in
13:09 85.3 °F 61.6 °F 29.99 in SW 4.0 mph 4.0 mph 45% 0.00 in
13:14 85.4 °F 61.7 °F 29.99 in East 4.0 mph 6.0 mph 45% 0.00 in
13:19 85.2 °F 61.5 °F 29.99 in SE 5.0 mph 7.0 mph 45% 0.00 in
13:24 85.5 °F 62.4 °F 29.98 in East 3.0 mph 6.0 mph 46% 0.00 in
13:29 85.7 °F 61.3 °F 29.98 in NW 4.0 mph 4.0 mph 44% 0.00 in
13:34 86.1 °F 62.9 °F 29.98 in East 1.0 mph 2.0 mph 46% 0.00 in
13:39 85.7 °F 64.4 °F 29.98 in NE 2.0 mph 7.0 mph 49% 0.00 in
13:44 85.5 °F 62.4 °F 29.98 in SSW 1.0 mph 3.0 mph 46% 0.00 in
13:49 86.0 °F 63.4 °F 29.98 in East 3.0 mph 7.0 mph 47% 0.00 in
13:54 85.6 °F 62.5 °F 29.98 in NE 5.0 mph 10.0 mph 46% 0.00 in
13:59 85.3 °F 64.0 °F 29.98 in NE 6.0 mph 8.0 mph 49% 0.00 in
14:04 85.4 °F 63.5 °F 29.98 in NE 7.0 mph 7.0 mph 48% 0.00 in
14:09 85.6 °F 65.4 °F 29.98 in SE 1.0 mph 4.0 mph 51% 0.00 in
14:14 86.0 °F 64.6 °F 29.98 in SSW 2.0 mph 7.0 mph 49% 0.00 in
14:19 86.5 °F 64.5 °F 29.97 in North 3.0 mph 3.0 mph 48% 0.00 in
14:25 86.4 °F 66.7 °F 29.97 in ENE 8.0 mph 8.0 mph 52% 0.00 in
14:30 85.6 °F 63.1 °F 29.97 in East 4.0 mph 6.0 mph 47% 0.00 in
14:35 84.7 °F 63.5 °F 29.97 in NNE 2.0 mph 4.0 mph 49% 0.00 in
14:40 84.5 °F 65.0 °F 29.97 in NNE 3.0 mph 5.0 mph 52% 0.00 in
14:45 84.4 °F 64.9 °F 29.97 in NW 2.0 mph 3.0 mph 52% 0.00 in
14:50 84.6 °F 65.1 °F 29.97 in NNW 4.0 mph 6.0 mph 52% 0.00 in
14:55 85.2 °F 63.3 °F 29.97 in Calm   7.0 mph 48% 0.00 in
15:00 85.9 °F 64.5 °F 29.97 in East 3.0 mph 5.0 mph 49% 0.00 in
15:05 85.9 °F 64.0 °F 29.96 in NE 3.0 mph 5.0 mph 48% 0.00 in
15:10 85.3 °F 63.4 °F 29.96 in ENE 2.0 mph 4.0 mph 48% 0.00 in
15:15 85.5 °F 64.8 °F 29.96 in NE 4.0 mph 6.0 mph 50% 0.00 in
15:20 85.5 °F 63.0 °F 29.96 in NNE 5.0 mph 7.0 mph 47% 0.00 in
15:25 85.5 °F 63.0 °F 29.96 in East 5.0 mph 7.0 mph 47% 0.00 in
15:30 86.1 °F 62.9 °F 29.96 in SSW 1.0 mph 3.0 mph 46% 0.00 in
15:35 86.5 °F 63.9 °F 29.96 in North 3.0 mph 4.0 mph 47% 0.00 in
15:40 86.6 °F 65.8 °F 29.96 in NNE 2.0 mph 3.0 mph 50% 0.00 in
15:45 87.0 °F 65.0 °F 29.95 in NNW 2.0 mph 2.0 mph 48% 0.00 in
15:50 87.2 °F 65.7 °F 29.95 in NNW 3.0 mph 5.0 mph 49% 0.00 in
15:55 87.1 °F 64.4 °F 29.95 in ENE 3.0 mph 6.0 mph 47% 0.00 in
16:00 86.6 °F 64.0 °F 29.95 in NE 2.0 mph 5.0 mph 47% 0.00 in
16:05 86.7 °F 65.9 °F 29.95 in East 2.0 mph 4.0 mph 50% 0.00 in
16:10 87.0 °F 62.5 °F 29.94 in NNE 3.0 mph 6.0 mph 44% 0.00 in
16:15 87.2 °F 64.5 °F 29.94 in SSE 1.0 mph 1.0 mph 47% 0.00 in
16:20 87.8 °F 63.8 °F 29.94 in East 1.0 mph 5.0 mph 45% 0.00 in
16:25 87.7 °F 63.1 °F 29.94 in NNW 3.0 mph 5.0 mph 44% 0.00 in
16:30 87.8 °F 64.5 °F 29.94 in NNE 2.0 mph 4.0 mph 46% 0.00 in
16:35 87.7 °F 63.1 °F 29.94 in North 1.0 mph 3.0 mph 44% 0.00 in
16:40 87.6 °F 66.1 °F 29.93 in Calm   3.0 mph 49% 0.00 in
16:45 87.6 °F 64.3 °F 29.93 in East 3.0 mph 6.0 mph 46% 0.00 in
16:50 87.7 °F 61.8 °F 29.93 in ESE 5.0 mph 5.0 mph 42% 0.00 in
16:55 88.1 °F 61.5 °F 29.93 in Calm   1.0 mph 41% 0.00 in
17:00 88.2 °F 60.1 °F 29.93 in NNE 3.0 mph 5.0 mph 39% 0.00 in
17:05 87.9 °F 62.0 °F 29.92 in East 1.0 mph 3.0 mph 42% 0.00 in
17:10 87.9 °F 60.6 °F 29.92 in North 3.0 mph 3.0 mph 40% 0.00 in
17:15 88.0 °F 61.4 °F 29.92 in NE 3.0 mph 5.0 mph 41% 0.00 in
17:20 87.9 °F 62.0 °F 29.92 in NNW 2.0 mph 4.0 mph 42% 0.00 in
17:25 87.6 °F 60.3 °F 29.92 in North 2.0 mph 5.0 mph 40% 0.00 in
17:30 88.1 °F 60.0 °F 29.92 in NNE 3.0 mph 5.0 mph 39% 0.00 in
17:35 87.9 °F 58.4 °F 29.92 in North 1.0 mph 3.0 mph 37% 0.00 in
17:40 88.4 °F 61.7 °F 29.92 in North 1.0 mph 1.0 mph 41% 0.00 in
17:45 89.0 °F 63.0 °F 29.92 in Calm   1.0 mph 42% 0.00 in
17:50 89.2 °F 61.0 °F 29.92 in NNE 1.0 mph 2.0 mph 39% 0.00 in
17:55 88.9 °F 61.5 °F 29.93 in ENE 3.0 mph 3.0 mph 40% 0.00 in
18:00 88.4 °F 59.6 °F 29.93 in SE 2.0 mph 3.0 mph 38% 0.00 in
18:05 88.8 °F 60.7 °F 29.93 in SSE 4.0 mph 4.0 mph 39% 0.00 in
18:10 88.9 °F 63.5 °F 29.93 in Calm   2.0 mph 43% 0.00 in
18:15 89.2 °F 58.8 °F 29.93 in Calm   1.0 mph 36% 0.00 in
18:20 89.7 °F 62.2 °F 29.92 in WNW 2.0 mph 3.0 mph 40% 0.00 in
18:26 88.7 °F 61.3 °F 29.93 in WNW 3.0 mph 4.0 mph 40% 0.00 in
18:31 88.4 °F 61.7 °F 29.93 in NNE 2.0 mph 3.0 mph 41% 0.00 in
18:36 88.4 °F 62.4 °F 29.93 in North 1.0 mph 3.0 mph 42% 0.00 in
18:41 88.3 °F 62.3 °F 29.93 in NNW 1.0 mph 3.0 mph 42% 0.00 in
18:46 88.2 °F 61.5 °F 29.93 in NE 1.0 mph 4.0 mph 41% 0.00 in
18:51 88.3 °F 62.3 °F 29.93 in Calm     42% 0.00 in
18:56 88.5 °F 63.2 °F 29.93 in WNW 1.0 mph 3.0 mph 43% 0.00 in
19:01 88.8 °F 62.8 °F 29.93 in Calm   1.0 mph 42% 0.00 in
19:06 90.4 °F 65.5 °F 29.93 in Calm     44% 0.00 in
19:11 91.3 °F 65.0 °F 29.93 in Calm     42% 0.00 in
19:16 90.2 °F 62.6 °F 29.93 in WNW 1.0 mph 2.0 mph 40% 0.00 in
19:21 89.6 °F 63.5 °F 29.93 in WNW 1.0 mph 1.0 mph 42% 0.00 in
19:26 89.0 °F 63.6 °F 29.93 in Calm   2.0 mph 43% 0.00 in
19:31 88.6 °F 63.9 °F 29.93 in NNW 1.0 mph 2.0 mph 44% 0.00 in
19:36 88.1 °F 64.1 °F 29.94 in NNW 1.0 mph 3.0 mph 45% 0.00 in
19:41 87.8 °F 65.7 °F 29.94 in Calm   2.0 mph 48% 0.00 in
19:46 87.7 °F 64.4 °F 29.94 in NE 1.0 mph 1.0 mph 46% 0.00 in
19:51 87.5 °F 63.6 °F 29.94 in NE 1.0 mph 2.0 mph 45% 0.00 in
19:56 87.6 °F 67.8 °F 29.94 in North 2.0 mph 2.0 mph 52% 0.00 in
20:01 87.3 °F 66.4 °F 29.94 in Calm   1.0 mph 50% 0.00 in
20:06 87.5 °F 67.7 °F 29.94 in Calm     52% 0.00 in
20:11 87.5 °F 66.6 °F 29.94 in Calm     50% 0.00 in
20:16 86.9 °F 68.3 °F 29.94 in North 1.0 mph 2.0 mph 54% 0.00 in
20:21 85.8 °F 68.8 °F 29.94 in Calm   1.0 mph 57% 0.00 in
20:26 84.9 °F 69.0 °F 29.94 in Calm   1.0 mph 59% 0.00 in
20:31 83.7 °F 68.8 °F 29.94 in Calm   2.0 mph 61% 0.00 in
20:36 82.6 °F 69.2 °F 29.94 in Calm     64% 0.00 in
20:41 81.9 °F 69.4 °F 29.94 in Calm     66% 0.00 in
20:46 81.0 °F 68.6 °F 29.94 in Calm     66% 0.00 in
20:51 79.9 °F 68.0 °F 29.94 in NW 2.0 mph 3.0 mph 67% 0.00 in
20:56 78.7 °F 68.9 °F 29.94 in NNW 1.0 mph 2.0 mph 72% 0.00 in
21:01 78.2 °F 68.4 °F 29.94 in NNW 1.0 mph 1.0 mph 72% 0.00 in
21:06 78.1 °F 68.3 °F 29.94 in Calm   1.0 mph 72% 0.00 in
21:11 78.0 °F 68.7 °F 29.94 in Calm     73% 0.00 in
21:16 77.6 °F 69.1 °F 29.94 in Calm     75% 0.00 in
21:21 76.9 °F 68.4 °F 29.95 in Calm   1.0 mph 75% 0.00 in
21:26 77.0 °F 68.5 °F 29.95 in Calm   1.0 mph 75% 0.00 in
21:31 76.8 °F 68.7 °F 29.95 in Calm     76% 0.00 in
21:36 76.1 °F 68.4 °F 29.95 in Calm   1.0 mph 77% 0.00 in
21:42 75.7 °F 67.2 °F 29.95 in Calm     75% 0.00 in
21:47 75.9 °F 67.0 °F 29.95 in Calm     74% 0.00 in
21:52 75.5 °F 66.6 °F 29.95 in Calm     74% 0.00 in
21:57 75.0 °F 66.2 °F 29.95 in Calm     74% 0.00 in
22:02 74.9 °F 66.1 °F 29.95 in NNW 1.0 mph 1.0 mph 74% 0.00 in
22:07 75.3 °F 66.4 °F 29.95 in Calm   1.0 mph 74% 0.00 in
22:12 74.9 °F 66.4 °F 29.96 in Calm     75% 0.00 in
22:17 74.3 °F 66.6 °F 29.95 in Calm     77% 0.00 in
22:22 73.9 °F 66.2 °F 29.95 in Calm     77% 0.00 in
22:27 73.7 °F 65.7 °F 29.95 in Calm     76% 0.00 in
22:32 73.7 °F 66.4 °F 29.95 in Calm     78% 0.00 in
22:37 73.4 °F 66.5 °F 29.96 in Calm   1.0 mph 79% 0.00 in
22:42 73.3 °F 66.0 °F 29.96 in Calm     78% 0.00 in
22:47 73.9 °F 65.9 °F 29.96 in Calm   1.0 mph 76% 0.00 in
22:52 74.7 °F 65.9 °F 29.96 in NNW 1.0 mph 1.0 mph 74% 0.00 in
22:57 75.1 °F 65.9 °F 29.97 in Calm   1.0 mph 73% 0.00 in
23:02 75.0 °F 66.2 °F 29.97 in North 1.0 mph 1.0 mph 74% 0.00 in
23:07 74.6 °F 66.2 °F 29.97 in ESE 4.0 mph 4.0 mph 75% 0.00 in
23:12 74.6 °F 66.2 °F 29.97 in East 7.0 mph 7.0 mph 75% 0.00 in
23:17 75.0 °F 66.2 °F 29.97 in SE 2.0 mph 9.0 mph 74% 0.00 in
23:22 75.3 °F 66.1 °F 29.97 in ESE 1.0 mph 4.0 mph 73% 0.00 in
23:27 75.3 °F 66.1 °F 29.97 in ENE 2.0 mph 3.0 mph 73% 0.00 in
23:32 75.4 °F 66.5 °F 29.97 in ENE 1.0 mph 3.0 mph 74% 0.00 in
23:37 75.4 °F 66.9 °F 29.97 in Calm   2.0 mph 75% 0.00 in
23:42 75.2 °F 67.1 °F 29.97 in ESE 2.0 mph 2.0 mph 76% 0.00 in
23:47 75.1 °F 67.8 °F 29.97 in ESE 1.0 mph 3.0 mph 78% 0.00 in
23:52 74.8 °F 67.9 °F 29.97 in ESE 2.0 mph 3.0 mph 79% 0.00 in
23:57 74.6 °F 68.0 °F 29.97 in ESE 1.0 mph 3.0 mph 80% 0.00 in
Compliments of Weather Underground